Zurück zum Katalog

STARLINK-2122

AktivKommunikationVLEO
NORAD 47400·PAYLOAD·🇺🇸 United States

Gestartet Jan 20, 2021 von Cape Canaveral Space Force Station

Loading…

Nächste Überflüge (nächste 24 Stunden)

TLE

AktuellSource: CelesTrak SupGP

Epoche: Sep 14, 2026, 20:16 UTC

1 47400C 21005BD  26257.84493056  .00032738  00000+0  10532-2 0  2576
2 47400  53.1593 213.2411 0001361  82.5816  76.3721 15.31672221    15

Verfolge STARLINK-2122 in Echtzeit mit AllMySat

Download on the App Store